Regional Weather Roundup
Issued by NWS

Home | Current Version | Previous Version | Text Only | Print | Product List | Glossary On
Versions: 1 2 3 4 5 6 7 8 9 10 11 12 13 14 15 16 17 18 19 20 21 22 23 24 25 26 27 28 29 30 31 32 33 34 35 36 37 38 39 40 41 42 43 44 45 46 47 48 49 50
000
ASUS44 KFWD 260615
RWRTX
NORTH TEXAS HOURLY WEATHER ROUNDUP
NATIONAL WEATHER SERVICE FORT WORTH TX
100 AM CDT SAT MAY 26 2018

NOTE: "FAIR" INDICATES FEW OR NO CLOUDS BELOW 12,000 FEET WITH NO
SIGNIFICANT WEATHER AND/OR OBSTRUCTIONS TO VISIBILITY.

TXZ118-119-260700-
DALLAS/FORT WORTH METROPLEX

CITY           SKY/WX    TMP DP  RH WIND       PRES   REMARKS
DFW AIRPORT    MOCLDY    75  66  73 CALM      29.84F THUNDER
6HR MIN TEMP:  75; 6HR MAX TEMP:  85; 6HR PCP:  0.01;

DALLAS LOVE    MOCLDY    77  66  68 E6        29.86R THUNDER
6HR MIN TEMP:  77; 6HR MAX TEMP:  85;

FTW MEACHAM    FAIR      80  66  62 S12       29.82F
6HR MIN TEMP:  78; 6HR MAX TEMP:  87;

DAL-EXECUTIVE  FAIR      75  65  70 SE7       29.84F
6HR MIN TEMP:  74; 6HR MAX TEMP:  85; 6HR PCP: TRACE;

FTW-ALLIANCE   MOCLDY    78  65  63 S13       29.82F
6HR MIN TEMP:  77; 6HR MAX TEMP:  86;

FTW-NAS-JRB    FAIR      79  64  60 S13       29.83F
6HR MIN TEMP:  77; 6HR MAX TEMP:  86;

FTW-SPINKS     FAIR      77  65  66 S8        29.87F
6HR MIN TEMP:  74; 6HR MAX TEMP:  82;

ARLINGTON      FAIR      77  67  71 S7        29.84F
6HR MIN TEMP:  73; 6HR MAX TEMP:  84;

GRAND PRAIRIE  FAIR      76  64  65 SE6       29.86F
6HR MIN TEMP:  75; 6HR MAX TEMP:  84;

ADDISON        FAIR      76  65  69 S6        29.88F
6HR MIN TEMP:  74; 6HR MAX TEMP:  84;

MESQUITE       FAIR      70  67  89 SW3       29.89R
6HR MIN TEMP:  69; 6HR MAX TEMP:  82;

LANCASTER      FAIR      70  67  92 CALM      29.89R
6HR MIN TEMP:  70; 6HR MAX TEMP:  79;

$$

TXZ091>094-102>105-117-120-121-131>134-260700-
NORTH CENTRAL TEXAS

CITY           SKY/WX    TMP DP  RH WIND       PRES   REMARKS
SHRMAN/DENISON MOCLDY    70  66  89 NE3       29.89S
6HR MIN TEMP:  70; 6HR MAX TEMP:  83;

GAINESVILLE    FAIR      71  60  69 SE7       29.88S
6HR MIN TEMP:  70; 6HR MAX TEMP:  81;

BOWIE          FAIR      74  61  62 SE6       29.82F
6HR MIN TEMP:  74; 6HR MAX TEMP:  83;

BRIDGEPORT     FAIR      79  63  57 S8        29.83F
6HR MIN TEMP:  76; 6HR MAX TEMP:  85;

DECATUR        FAIR      75  63  64 SE5       29.83F
6HR MIN TEMP:  75; 6HR MAX TEMP:  85;

DENTON         FAIR      72  62  71 E10       29.85F
6HR MIN TEMP:  70; 6HR MAX TEMP:  85; 6HR PCP: TRACE;

MCKINNEY         N/A    N/A N/A N/A S3          N/A  THUNDER
BONHAM         LGT RAIN  67  66  96 NW7       29.88R
6HR MIN TEMP:  66; 6HR MAX TEMP:  72;

GREENVILLE     FAIR      73  68  83 CALM      29.86S
ROCKWALL       FAIR      71  66  85 W7        29.88R
6HR MIN TEMP:  71; 6HR MAX TEMP:  82;

TERRELL        FAIR      72  65  78 S5        29.86F
6HR MIN TEMP:  72; 6HR MAX TEMP:  83;

WAXAHACHIE     FAIR      71  66  84 CALM      29.90R
6HR MIN TEMP:  70; 6HR MAX TEMP:  80;

CLEBURNE       FAIR      73  68  83 SW8       29.90F
GRANBURY       FAIR      79  66  65 S13       29.84F
6HR MIN TEMP:  78; 6HR MAX TEMP:  83;

$$

TXZ083>090-098>101-113>116-127>130-139>142-154-155-260700-
WESTERN NORTH TEXAS

CITY           SKY/WX    TMP DP  RH WIND       PRES   REMARKS
WICHITA FALLS  FAIR      73  63  70 S3        29.79S
6HR MIN TEMP:  73; 6HR MAX TEMP:  86;

WF-KICKAPOO    FAIR      75  64  69 S10       29.80F
6HR MIN TEMP:  75; 6HR MAX TEMP:  88;

VERNON         FAIR      77  62  60 SW5       29.83R
6HR MIN TEMP:  76; 6HR MAX TEMP:  99;

ABILENE        FAIR      67  60  78 SE17      29.91F
6HR MIN TEMP:  65; 6HR MAX TEMP:  95; 6HR PCP: TRACE;

ABILENE-DYESS  FAIR      71  54  54 S13       29.91F
6HR MIN TEMP:  70; 6HR MAX TEMP:  98;

BRECKENRIDGE   FAIR      80  51  36 S20G26    29.81S
6HR MIN TEMP:  69; 6HR MAX TEMP:  87; 6HR PCP:  0.11;

CISCO          FAIR      75  54  46 SE16G24   29.88F
EASTLAND       FAIR      75  55  49 SE18      29.85F
6HR MIN TEMP:  65; 6HR MAX TEMP:  82; 6HR PCP:  1.02;

RANGER         FAIR      73  56  53 S16G25    29.82F
6HR MIN TEMP:  66; 6HR MAX TEMP:  79; 6HR PCP:  0.11;

MINERAL WELLS  FAIR      72  60  66 SE15      29.77F
6HR MIN TEMP:  71; 6HR MAX TEMP:  82;

STEPHENVILLE   FAIR      76  48  37 SE9G20    29.86F
6HR MIN TEMP:  67; 6HR MAX TEMP:  82; 6HR PCP:  0.06;

COMANCHE       CLOUDY    69  62  78 NW8       30.04F
6HR MIN TEMP:  66; 6HR MAX TEMP:  90; 6HR PCP:  0.02;

BROWNWOOD      MOCLDY    68  61  77 NE18G25   29.97F
COLEMAN        FAIR      70  58  66 SE13G20   29.98F
6HR MIN TEMP:  68; 6HR MAX TEMP:  97; 6HR PCP:  0.01;

BRADY          FAIR      79  61  53 NE16G23   30.00R
$$

TXZ143>147-156>162-174-175-260700-
CENTRAL TEXAS

CITY           SKY/WX    TMP DP  RH WIND       PRES   REMARKS
WACO           FAIR      74  67  78 SW7       29.88R
6HR MIN TEMP:  73; 6HR MAX TEMP:  83;

WACO-MCGREGOR  FAIR      74  68  81 S5        29.89R
6HR MIN TEMP:  73; 6HR MAX TEMP:  84;

HILLSBORO      FAIR      73  67  82 W9        29.90R
6HR MIN TEMP:  70; 6HR MAX TEMP:  79;

CORSICANA      FAIR      71  65  81 S6        29.88S
6HR MIN TEMP:  71; 6HR MAX TEMP:  78;

MEXIA          FAIR      70  65  84 S5        29.86F
6HR MIN TEMP:  69; 6HR MAX TEMP:  78;

HEARNE         FAIR      75  70  83 CALM      29.88R
6HR MIN TEMP:  75; 6HR MAX TEMP:  89;

CAMERON        FAIR      75  69  79 CALM      29.88S
6HR MIN TEMP:  75; 6HR MAX TEMP:  90;

TEMPLE         FAIR      76  69  79 CALM      29.90R
6HR MIN TEMP:  74; 6HR MAX TEMP:  89;

KILLEEN        FAIR      78  67  68 CALM      29.91R
6HR MIN TEMP:  76; 6HR MAX TEMP:  89;

KILLEEN-SKYLRK FAIR      78  69  73 CALM      29.92R
6HR MIN TEMP:  78; 6HR MAX TEMP:  89;

FORT HOOD      FAIR      79  68  68 CALM      29.89R
6HR MIN TEMP:  79; 6HR MAX TEMP:  90; 6HR PCP: TRACE;

GATESVILLE     FAIR      77  68  73 NW8G21    29.99R
HAMILTON       TSTM      76  65  68 N10G18    30.01S
6HR MIN TEMP:  74; 6HR MAX TEMP:  89;

LAMPASAS       MOCLDY    78  68  72 N9        29.98R
6HR MIN TEMP:  77; 6HR MAX TEMP:  94;

$$

TXZ095>097-106>112-122>126-135>138-148>153-164>167-260700-
EAST TEXAS

CITY           SKY/WX    TMP DP  RH WIND       PRES   REMARKS
PARIS          FAIR      67  66  97 E3        29.87S
6HR MIN TEMP:  67; 6HR MAX TEMP:  76;

SULPHUR SPRNGS FAIR      71  67  88 CALM      29.87F
6HR MIN TEMP:  70; 6HR MAX TEMP:  76;

MOUNT PLEASANT FAIR      69  67  94 SE6       29.87F
6HR MIN TEMP:  68; 6HR MAX TEMP:  76;

GILMER         FAIR      69  67  95 E3        29.87F
6HR MIN TEMP:  69; 6HR MAX TEMP:  74;

MINEOLA        FAIR      68  66  94 CALM      29.86R
TYLER          FAIR      71  67  87 S7        29.86F
6HR MIN TEMP:  70; 6HR MAX TEMP:  76;

LONGVIEW       FAIR      71  70  96 S10       29.84F
6HR MIN TEMP:  70; 6HR MAX TEMP:  80;

MARSHALL       FAIR      70  68  93 CALM      29.89F
6HR MIN TEMP:  70; 6HR MAX TEMP:  75;

ATHENS         FAIR      70  64  83 CALM      29.86S
PALESTINE      FAIR      72  67  84 SE3       29.89R
JACKSONVILLE   FAIR      73  69  87 S8        29.89F
HENDERSON      FAIR      69  67  94 CALM      29.89S
6HR MIN TEMP:  68; 6HR MAX TEMP:  78;

CENTER         FAIR      72  69  91 S3        29.88S
6HR MIN TEMP:  72; 6HR MAX TEMP:  83;

NACOGDOCHES      N/A     70  70 100 E3        29.89S
6HR MIN TEMP:  70; 6HR MAX TEMP:  76;

LUFKIN         FAIR      74  67  78 S7        29.87F
6HR MIN TEMP:  73; 6HR MAX TEMP:  7


USA.gov is the U.S. government's official web portal to all federal, state and local government web resources and services.